Location: Newark
(50.4348°N, 30.5552°E)
Time: 17:42:54
(UTC+00:00)

Altair - Pass Details

Date: 24 January 2020
Orbit: 1502 x 1682 km, 47.2° (Epoch: 22 February)

Event Time Altitude Azimuth Distance (km) Brightness Sun altitude
Rises 08:16:30 0° 246° (WSW) 4,903 10.1 15.9°
Reaches altitude 10° 08:19:39 10° 244° (WSW) 3,928 9.7 16.2°
Maximum altitude 08:29:40 68° 164° (SSE) 1,789 8.6 16.9°
Drops below altitude 10° 08:39:40 10° 85° (E) 3,923 9.9 17.5°
Sets 08:42:49 0° 83° (E) 4,897 10.3 17.7°
